Millington, TN

10:32 PM CDT on March 22, 2017 (GMT -0500)
Millington Municipal

Weather History for KNQA - December, 2013

Change the Weather History Date:

Saturday, December 21, 2013

  Actual Average Record
Temperature  
Mean Temperature 68 °F -  
Max Temperature 73 °F 48 °F 73 °F (2013)
Min Temperature 62 °F 30 °F 26 °F (2000)
Cooling Degree Days 4    
Growing Degree Days 18 (Base 50)    
Moisture  
Dew Point 64 °F    
Average Humidity 86    
Maximum Humidity 100    
Minimum Humidity 78    
Precipitation  
Precipitation 0.00 in - - ()
Sea Level Pressure  
Sea Level Pressure 29.66 in    
Wind  
Wind Speed 14 mph (SSE)    
Max Wind Speed 18 mph    
Max Gust Speed 24 mph    
Visibility 9 miles    
Events Rain    
Averages and records for this station are not official NWS values.
T = Trace of Precipitation, MM = Missing Value Source: NWS Daily Summary

Daily Weather History Graph

Daily Weather History Graph

Search for Another Location

Airport or City:

Trip Planner

Search our weather history database for the weather conditions in past years. The results will help you decide how hot, cold, wet, or windy it might be!

Date:

Astronomy

Dec. 21, 2013 Rise Set
Actual Time 7:04 AM CST 4:50 PM CST
Civil Twilight 6:36 AM CST 5:19 PM CST
Nautical Twilight 6:04 AM CST 5:51 PM CST
Astronomical Twilight 5:33 AM CST 6:22 PM CST
Moon 8:59 PM CST (12/21) 9:38 AM CST (12/21)
Length of Visible Light 10h 42m
Length of Day
9h 46m
Waning Gibbous, 84% of the Moon is Illuminated
Dec 21
Waning Gibbous
Dec 25
Last Quarter
Jan 1
New
Jan 7
First Quarter
Jan 15
Full

Hourly Weather History & Observations

Time (CST) Temp. Dew Point Humidity Pressure Visibility Wind Dir Wind Speed Gust Speed Precip Events Conditions
12:53 AM 69.8 °F 66.2 °F 88% 29.77 in 10.0 mi SSE 12.7 mph - N/A   Overcast
1:50 AM 69.8 °F 64.4 °F 83% 29.76 in 10.0 mi SSE 15.0 mph - N/A   Overcast
2:15 AM 68.0 °F 64.4 °F 88% 29.76 in 10.0 mi SSE 12.7 mph - N/A   Mostly Cloudy
2:35 AM 68.0 °F 64.4 °F 88% 29.75 in 10.0 mi SSE 12.7 mph - N/A   Overcast
2:55 AM 68.0 °F 64.4 °F 88% 29.75 in 10.0 mi SSE 12.7 mph - N/A   Overcast
3:15 AM 68.0 °F 64.4 °F 88% 29.75 in 10.0 mi SSE 15.0 mph - N/A   Overcast
3:35 AM 68.0 °F 64.4 °F 88% 29.73 in 10.0 mi SSE 15.0 mph - N/A   Overcast
3:55 AM 68.0 °F 64.4 °F 88% 29.72 in 10.0 mi SSE 15.0 mph - N/A   Overcast
4:15 AM 68.0 °F 62.6 °F 83% 29.71 in 10.0 mi SSE 12.7 mph - N/A   Overcast
4:35 AM 68.0 °F 62.6 °F 83% 29.70 in 10.0 mi SSE 17.3 mph - N/A   Overcast
4:55 AM 66.2 °F 62.6 °F 88% 29.69 in 10.0 mi SSE 12.7 mph - N/A   Mostly Cloudy
5:30 AM 68.0 °F 62.6 °F 83% 29.69 in 10.0 mi South 13.8 mph - N/A   Overcast
5:55 AM 68.0 °F 62.6 °F 83% 29.68 in 10.0 mi SSE 15.0 mph - N/A   Overcast
6:55 AM 68.0 °F 62.6 °F 83% 29.67 in 10.0 mi SSE 13.8 mph - N/A   Overcast
7:55 AM 69.8 °F 62.6 °F 78% 29.68 in 10.0 mi SSE 18.4 mph 23.0 mph N/A   Overcast
8:55 AM 69.8 °F 62.6 °F 78% 29.69 in 10.0 mi South 11.5 mph - N/A   Overcast
9:55 AM 69.8 °F 62.6 °F 78% 29.73 in 10.0 mi South 16.1 mph 24.2 mph N/A   Mostly Cloudy
10:55 AM 69.8 °F 64.4 °F 83% 29.67 in 10.0 mi SSE 16.1 mph 23.0 mph N/A   Mostly Cloudy
11:57 AM 69.8 °F 64.4 °F 83% 29.60 in 10.0 mi North - - N/A   Overcast
12:55 PM 69.8 °F 64.4 °F 83% 29.56 in 9.0 mi SSE 12.7 mph - N/A Rain Light Rain
1:50 PM 69.8 °F 66.2 °F 88% 29.52 in 4.0 mi South 8.1 mph - N/A Rain Light Rain
2:50 PM 73.4 °F 66.2 °F 78% 29.49 in 10.0 mi SSE 12.7 mph - N/A   Overcast
3:55 PM 69.8 °F 66.2 °F 88% 29.44 in 5.0 mi SE 11.5 mph - N/A Rain Light Rain
4:50 PM 68.0 °F 66.2 °F 94% 29.52 in 5.0 mi SW 18.4 mph - N/A Rain Light Rain
5:50 PM 64.4 °F 64.4 °F 100% 29.48 in 3.0 mi SSW 9.2 mph - N/A Rain Light Rain
6:50 PM 62.6 °F 62.6 °F 100% 29.56 in 7.0 mi SW 12.7 mph - N/A Rain Light Rain